Location: Sobotiste
(48.7170°N, 17.4000°E)
Time: 00:55:56
(UTC+01:00)

EO-79 - Visible Passes

Search period start: 14 March 2026 00:00
Search period end: 24 March 2026 00:00
Orbit: 510 x 522 km, 98.1° (Epoch: 13 March)

Date Brightness Start Highest point End Pass type
(mag) Time Alt. Az. Time Alt. Az. Time Alt. Az.
18 Mar ? 05:15:15 10° NE 05:18:15 22° E 05:21:13 10° SSE visible
19 Mar ? 05:00:59 10° NE 05:03:18 16° E 05:05:36 10° SE visible
20 Mar ? 04:47:22 10° ENE 04:48:17 11° E 04:49:11 10° ESE visible
